Weather History for Pinedale, WY

Change the Weather History Date:

Tuesday, August 20, 2013

  Actual Average (KBPI) Record (KBPI)
Temperature  
Mean Temperature 64 °F 59 °F  
Max Temperature 78 °F 78 °F 89 °F (2003)
Min Temperature 50 °F 40 °F 25 °F (1980)
Degree Days  
Heating Degree Days 1 6  
Month to date heating degree days 89  
Since 1 June heating degree days 511  
Since 1 July heating degree days 206  
Cooling Degree Days 0 0  
Month to date cooling degree days 12  
Year to date cooling degree days 36  
Since 1 June cooling degree days 36  
Growing Degree Days 14 (Base 50)    
Moisture  
Dew Point 40 °F    
Average Humidity 43    
Maximum Humidity 63    
Minimum Humidity 23    
Precipitation  
Precipitation 0.00 in 0.02 in 0.18 in (2004)
Month to date precipitation 0.46  
Year to date precipitation 4.43  
Sea Level Pressure  
Sea Level Pressure 30.27 in    
Wind  
Wind Speed 5 mph (SW)    
Max Wind Speed 20 mph    
Max Gust Speed 26 mph    
Visibility 10 miles    
Events Rain , Thunderstorm    
T = Trace of Precipitation, MM = Missing Value Source: NWS Daily Summary

Daily Weather History Graph

Daily Weather History Graph

Search for Another Location

Airport:

Trip Planner

Search our weather history database for the weather conditions in past years. The results will help you decide how hot, cold, wet, or windy it might be!

Date:

Astronomy

Aug. 20, 2013 Rise Set
Actual Time 6:31 AM MDT 8:12 PM MDT
Civil Twilight 6:01 AM MDT 8:42 PM MDT
Nautical Twilight 5:24 AM MDT 9:19 PM MDT
Astronomical Twilight 4:45 AM MDT 9:58 PM MDT
Moon 7:44 PM MDT (8/20) 6:05 AM MDT (8/20)
Length of Visible Light 14h 41m
Length of Day
13h 41m
Full, 100% of the Moon is Illuminated
Aug 20
Full
Aug 20
Full
Aug 28
Last Quarter
Sep 5
New
Sep 12
First Quarter

Hourly Weather History & Observations

Time (MDT) Temp. Dew Point Humidity Pressure Visibility Wind Dir Wind Speed Gust Speed Precip Events Conditions
12:15 AM 57.2 °F 35.6 °F 44% 30.27 in 10.0 mi Calm Calm - N/A   Clear
12:35 AM 55.4 °F 33.8 °F 44% 30.27 in 10.0 mi Calm Calm - N/A   Clear
12:55 AM 57.2 °F 32.0 °F 38% 30.27 in 10.0 mi NNW 3.5 mph - N/A   Clear
1:15 AM 53.6 °F 32.0 °F 44% 30.27 in 10.0 mi NW 5.8 mph - N/A   Clear
1:35 AM 53.6 °F 35.6 °F 51% 30.26 in 10.0 mi West 8.1 mph - N/A   Clear
1:55 AM 51.8 °F 33.8 °F 50% 30.26 in 10.0 mi West 6.9 mph - N/A   Clear
2:15 AM 51.8 °F 33.8 °F 50% 30.26 in 10.0 mi West 5.8 mph - N/A   Clear
2:35 AM 53.6 °F 33.8 °F 47% 30.26 in 10.0 mi NW 6.9 mph - N/A   Clear
2:55 AM 51.8 °F 33.8 °F 50% 30.25 in 10.0 mi Calm Calm - N/A   Clear
3:15 AM 51.8 °F 33.8 °F 50% 30.25 in 10.0 mi NW 5.8 mph - N/A   Clear
3:35 AM 50.0 °F 33.8 °F 54% 30.25 in 10.0 mi WNW 3.5 mph - N/A   Clear
3:55 AM 50.0 °F 33.8 °F 54% 30.25 in 10.0 mi West 6.9 mph - N/A   Clear
4:15 AM 51.8 °F 33.8 °F 50% 30.25 in 10.0 mi West 6.9 mph - N/A   Clear
4:35 AM 51.8 °F 33.8 °F 50% 30.25 in 10.0 mi WNW 5.8 mph - N/A   Clear
4:55 AM 51.8 °F 33.8 °F 50% 30.26 in 10.0 mi NW 5.8 mph - N/A   Scattered Clouds
5:15 AM 53.6 °F 33.8 °F 47% 30.26 in 10.0 mi NNW 4.6 mph - N/A   Mostly Cloudy
5:35 AM 53.6 °F 33.8 °F 47% 30.26 in 10.0 mi North 4.6 mph - N/A   Scattered Clouds
5:55 AM 53.6 °F 33.8 °F 47% 30.26 in 10.0 mi WNW 8.1 mph - N/A   Scattered Clouds
6:15 AM 53.6 °F 33.8 °F 47% 30.26 in 10.0 mi WSW 6.9 mph - N/A   Scattered Clouds
6:35 AM 53.6 °F 33.8 °F 47% 30.26 in 10.0 mi West 8.1 mph - N/A   Scattered Clouds
6:55 AM 55.4 °F 33.8 °F 44% 30.26 in 10.0 mi NW 6.9 mph - N/A   Scattered Clouds
7:15 AM 55.4 °F 35.6 °F 47% 30.27 in 10.0 mi WNW 3.5 mph - N/A   Scattered Clouds
7:35 AM 57.2 °F 35.6 °F 44% 30.27 in 10.0 mi NW 3.5 mph - N/A   Mostly Cloudy
7:55 AM 59.0 °F 37.4 °F 45% 30.28 in 10.0 mi Calm Calm - N/A   Overcast
8:15 AM 57.2 °F 41.0 °F 55% 30.29 in 10.0 mi WSW 3.5 mph - N/A   Overcast
8:35 AM 60.8 °F 37.4 °F 42% 30.30 in 10.0 mi WSW 4.6 mph - N/A Rain Light Rain
8:55 AM 64.4 °F 41.0 °F 42% 30.31 in 10.0 mi SSW 6.9 mph - N/A Rain Light Rain
9:15 AM 62.6 °F 46.4 °F 55% 30.32 in 10.0 mi South 4.6 mph - N/A   Drizzle
9:35 AM 60.8 °F 48.2 °F 63% 30.31 in 10.0 mi SSE 9.2 mph - N/A Rain Light Rain
9:55 AM 60.8 °F 48.2 °F 63% 30.32 in 10.0 mi ENE 6.9 mph - N/A   Mostly Cloudy
10:15 AM 62.6 °F 46.4 °F 55% 30.32 in 10.0 mi ENE 9.2 mph - N/A   Overcast
10:35 AM 64.4 °F 44.6 °F 49% 30.32 in 10.0 mi ENE 6.9 mph 10.4 mph N/A   Overcast
10:55 AM 68.0 °F 44.6 °F 43% 30.31 in 10.0 mi ENE 9.2 mph - N/A   Mostly Cloudy
11:15 AM 71.6 °F 42.8 °F 35% 30.31 in 10.0 mi East 3.5 mph - N/A   Scattered Clouds
11:35 AM 71.6 °F 41.0 °F 33% 30.30 in 10.0 mi ESE 4.6 mph - N/A   Clear
11:55 AM 73.4 °F 42.8 °F 33% 30.29 in 10.0 mi South 4.6 mph - N/A   Clear
12:15 PM 73.4 °F 41.0 °F 31% 30.29 in 10.0 mi SE 5.8 mph - N/A   Clear
12:35 PM 75.2 °F 42.8 °F 31% 30.29 in 10.0 mi SSE 6.9 mph - N/A   Clear
12:55 PM 75.2 °F 39.2 °F 27% 30.28 in 10.0 mi ENE 3.5 mph - N/A   Clear
1:15 PM 77.0 °F 39.2 °F 26% 30.27 in 10.0 mi ESE 5.8 mph - N/A   Clear
1:35 PM 78.8 °F 37.4 °F 23% 30.27 in 10.0 mi Calm Calm - N/A   Scattered Clouds
1:55 PM 75.2 °F 37.4 °F 25% 30.26 in 10.0 mi Calm Calm - N/A   Mostly Cloudy
2:15 PM 75.2 °F 37.4 °F 25% 30.27 in 10.0 mi SSE 3.5 mph - N/A   Mostly Cloudy
2:35 PM 73.4 °F 39.2 °F 29% 30.26 in 10.0 mi WSW 3.5 mph - N/A   Mostly Cloudy
2:55 PM 73.4 °F 39.2 °F 29% 30.26 in 10.0 mi SSW 16.1 mph 20.7 mph N/A   Scattered Clouds
3:15 PM 73.4 °F 41.0 °F 31% 30.26 in 10.0 mi SSW 12.7 mph - N/A   Scattered Clouds
3:35 PM 77.0 °F 41.0 °F 28% 30.25 in 10.0 mi South 11.5 mph - N/A   Clear
3:55 PM 75.2 °F 39.2 °F 27% 30.24 in 10.0 mi South 8.1 mph - N/A   Clear
4:15 PM 75.2 °F 39.2 °F 27% 30.24 in 10.0 mi SSE 9.2 mph - N/A   Clear
4:35 PM 75.2 °F 41.0 °F 29% 30.24 in 10.0 mi South 13.8 mph 20.7 mph N/A   Clear
4:55 PM 75.2 °F 41.0 °F 29% 30.23 in 10.0 mi SSE 11.5 mph - N/A   Clear
5:15 PM 75.2 °F 41.0 °F 29% 30.24 in 10.0 mi SSE 8.1 mph 18.4 mph N/A   Clear
5:35 PM 77.0 °F 41.0 °F 28% 30.23 in 10.0 mi SSE 11.5 mph 16.1 mph N/A   Clear
5:55 PM 73.4 °F 41.0 °F 31% 30.23 in 10.0 mi South 10.4 mph 16.1 mph N/A   Clear
6:15 PM 73.4 °F 41.0 °F 31% 30.24 in 10.0 mi South 10.4 mph - N/A   Clear
6:35 PM 73.4 °F 41.0 °F 31% 30.22 in 10.0 mi SSE 12.7 mph - N/A   Scattered Clouds
6:55 PM 71.6 °F 41.0 °F 33% 30.23 in 10.0 mi South 11.5 mph 16.1 mph N/A Thunderstorm Scattered Clouds
7:15 PM 69.8 °F 44.6 °F 40% 30.24 in 10.0 mi South 12.7 mph 18.4 mph N/A   Scattered Clouds
7:35 PM 68.0 °F 44.6 °F 43% 30.25 in 10.0 mi SSW 13.8 mph 21.9 mph N/A   Scattered Clouds
7:55 PM 68.0 °F 42.8 °F 40% 30.27 in 10.0 mi SW 13.8 mph 24.2 mph N/A   Mostly Cloudy
8:15 PM 64.4 °F 46.4 °F 52% 30.29 in 10.0 mi SW 19.6 mph 26.5 mph N/A   Overcast
8:35 PM 62.6 °F 50.0 °F 63% 30.30 in 10.0 mi West 6.9 mph 21.9 mph N/A   Overcast
8:55 PM 62.6 °F 50.0 °F 63% 30.31 in 10.0 mi WSW 3.5 mph 18.4 mph N/A   Mostly Cloudy
9:15 PM 62.6 °F 50.0 °F 63% 30.33 in 10.0 mi North 12.7 mph 17.3 mph N/A   Mostly Cloudy
9:35 PM 62.6 °F 46.4 °F 55% 30.33 in 10.0 mi NE 13.8 mph - N/A   Mostly Cloudy
9:55 PM 62.6 °F 42.8 °F 48% 30.31 in 10.0 mi ENE 5.8 mph - N/A   Mostly Cloudy
10:15 PM 62.6 °F 42.8 °F 48% 30.29 in 10.0 mi SE 5.8 mph - N/A   Overcast
10:35 PM 62.6 °F 42.8 °F 48% 30.29 in 10.0 mi ESE 5.8 mph - N/A   Overcast
10:55 PM 62.6 °F 44.6 °F 52% 30.28 in 10.0 mi Calm Calm - N/A   Overcast
11:15 PM 60.8 °F 42.8 °F 52% 30.29 in 10.0 mi West 4.6 mph - N/A   Mostly Cloudy
11:35 PM 59.0 °F 44.6 °F 59% 30.29 in 10.0 mi Calm Calm - N/A   Mostly Cloudy
11:55 PM 59.0 °F 44.6 °F 59% 30.29 in 10.0 mi Calm Calm - N/A   Overcast